TimePST,TemperatureF,Dew PointF,Humidity,Sea Level PressureIn,VisibilityMPH,Wind Direction,Wind SpeedMPH,Gust SpeedMPH,PrecipitationIn,Events,Conditions,WindDirDegrees,DateUTC
12:56 AM,26.1,21.0,81,29.90,10.0,Calm,Calm,-,N/A,,Clear,0,2013-01-10 08:56:00
1:56 AM,23.0,19.9,88,29.92,10.0,Calm,Calm,-,N/A,,Clear,0,2013-01-10 09:56:00
2:56 AM,24.1,19.9,84,29.93,10.0,SSW,4.6,-,N/A,,Clear,200,2013-01-10 10:56:00
3:56 AM,21.0,18.0,88,29.94,10.0,South,3.5,-,N/A,,Partly Cloudy,170,2013-01-10 11:56:00
4:56 AM,21.0,18.0,88,29.94,10.0,South,3.5,-,N/A,,Clear,170,2013-01-10 12:56:00
5:56 AM,21.0,17.1,85,29.96,10.0,Calm,Calm,-,N/A,,Clear,0,2013-01-10 13:56:00
7:56 AM,19.9,16.0,85,30.00,10.0,SE,3.5,-,N/A,,Clear,140,2013-01-10 15:56:00
8:56 AM,25.0,19.9,81,30.00,10.0,SSE,3.5,-,N/A,,Mostly Cloudy,160,2013-01-10 16:56:00
9:56 AM,27.0,21.0,78,30.00,10.0,South,5.8,-,N/A,,Overcast,170,2013-01-10 17:56:00
10:13 AM,28.4,21.2,74,29.93,2.0,South,3.5,-,0.00,Snow,Light Snow,180,2013-01-10 18:13:00
10:23 AM,26.6,21.2,80,29.93,1.2,Calm,Calm,-,0.00,Snow,Light Snow,0,2013-01-10 18:23:00
10:56 AM,27.0,23.0,85,30.01,0.5,SSW,3.5,-,0.00,Snow,Light Snow,200,2013-01-10 18:56:00
11:03 AM,26.6,24.8,93,29.94,0.2,SSE,3.5,-,0.00,Fog-Snow,Heavy Snow,160,2013-01-10 19:03:00
11:17 AM,26.6,24.8,93,29.93,0.2,Calm,Calm,-,0.01,Fog-Snow,Heavy Snow,0,2013-01-10 19:17:00
11:56 AM,26.1,25.0,96,29.99,0.2,SSW,3.5,-,0.09,Fog-Snow,Heavy Snow,200,2013-01-10 19:56:00
12:10 PM,26.6,24.8,93,29.91,0.5,South,4.6,-,0.02,Fog-Snow,Snow,180,2013-01-10 20:10:00
12:32 PM,26.6,24.8,93,29.90,2.0,SSW,5.8,-,0.03,Snow,Light Snow,200,2013-01-10 20:32:00
12:46 PM,26.6,24.8,93,29.89,6.0,SSW,6.9,-,0.03,Snow,Light Snow,200,2013-01-10 20:46:00
12:56 PM,28.0,24.1,85,29.96,10.0,SSW,5.8,-,0.03,,Scattered Clouds,200,2013-01-10 20:56:00
1:56 PM,32.0,24.1,73,29.97,10.0,Calm,Calm,-,N/A,,Mostly Cloudy,0,2013-01-10 21:56:00
2:56 PM,28.9,24.1,82,29.97,10.0,Calm,Calm,-,N/A,,Mostly Cloudy,0,2013-01-10 22:56:00
3:56 PM,28.9,25.0,85,29.99,10.0,Calm,Calm,-,N/A,,Mostly Cloudy,0,2013-01-10 23:56:00
4:56 PM,28.0,19.0,69,30.00,10.0,WNW,9.2,-,N/A,,Scattered Clouds,300,2013-01-11 00:56:00
5:56 PM,19.9,17.1,89,30.03,10.0,Calm,Calm,-,N/A,,Clear,0,2013-01-11 01:56:00
6:56 PM,16.0,12.0,84,30.04,10.0,Calm,Calm,-,N/A,,Clear,0,2013-01-11 02:56:00
7:56 PM,21.9,16.0,78,30.03,10.0,NW,5.8,-,N/A,,Clear,320,2013-01-11 03:56:00
10:56 PM,8.1,3.9,83,30.06,10.0,NW,5.8,-,N/A,,Clear,310,2013-01-11 06:56:00
11:56 PM,8.1,3.9,83,30.06,10.0,WNW,5.8,-,N/A,,Clear,300,2013-01-11 07:56:00